Weather History for Paducah, KY

Change the Weather History Date:

Sunday, May 19, 2013

  Actual Average Record
Temperature  
Mean Temperature 79 °F 68 °F  
Max Temperature 88 °F 79 °F 92 °F (1987)
Min Temperature 69 °F 57 °F 39 °F (2002)
Degree Days  
Heating Degree Days 0 2  
Month to date heating degree days 75 52  
Since 1 July heating degree days 4201 4116  
Cooling Degree Days 14 5  
Month to date cooling degree days 60 60  
Year to date cooling degree days 92 102  
Growing Degree Days 28 (Base 50)    
Moisture  
Dew Point 69 °F    
Average Humidity 77    
Maximum Humidity 100    
Minimum Humidity 53    
Precipitation  
Precipitation T in 0.14 in 1.40 in (1947)
Month to date precipitation 2.21 3.20  
Year to date precipitation 23.35 19.48  
Snow  
Snow 0.00 in 0.00 in 0.00 in (2002)
Month to date snowfall 0.0 0.0  
Since 1 July snowfall 6.8 9.1  
Snow Depth 0.00 in    
Sea Level Pressure  
Sea Level Pressure 29.89 in    
Wind  
Wind Speed 7 mph (South)    
Max Wind Speed 16 mph    
Max Gust Speed 21 mph    
Visibility 7 miles    
Events      
T = Trace of Precipitation, MM = Missing Value Source: NWS Daily Summary

Daily Weather History Graph

Daily Weather History Graph

Search for Another Location

Airport:

Trip Planner

Search our weather history database for the weather conditions in past years. The results will help you decide how hot, cold, wet, or windy it might be!

Date:

Astronomy

May. 19, 2013 Rise Set
Actual Time 5:43 AM CDT 7:59 PM CDT
Civil Twilight 5:14 AM CDT 8:29 PM CDT
Nautical Twilight 4:38 AM CDT 9:05 PM CDT
Astronomical Twilight 3:58 AM CDT 9:45 PM CDT
Moon 2:11 PM CDT (5/19) 1:58 AM CDT (5/19)
Length of Visible Light 15h 15m
Length of Day
14h 16m
Waxing Gibbous, 65% of the Moon is Illuminated
May 19
Waxing Gibbous
May 24
Full
May 31
Last Quarter
Jun 8
New
Jun 16
First Quarter

Hourly Weather History & Observations

Time (CDT) Temp. Heat Index Dew Point Humidity Pressure Visibility Wind Dir Wind Speed Gust Speed Precip Events Conditions
12:53 AM 71.1 °F - 64.9 °F 81% 29.92 in 10.0 mi SSE 4.6 mph - N/A   Mostly Cloudy
1:53 AM 70.0 °F - 66.0 °F 87% 29.91 in 10.0 mi SE 3.5 mph - N/A   Mostly Cloudy
2:53 AM 71.1 °F - 68.0 °F 90% 29.89 in 9.0 mi SSE 5.8 mph - N/A   Overcast
3:53 AM 70.0 °F - 68.0 °F 93% 29.89 in 6.0 mi South 3.5 mph - N/A   Overcast
4:53 AM 71.1 °F - 69.1 °F 93% 29.89 in 4.0 mi South 3.5 mph - N/A   Partly Cloudy
5:39 AM 69.8 °F - 68.0 °F 94% 29.90 in 2.0 mi Calm Calm - N/A   Scattered Clouds
5:53 AM 70.0 °F - 69.1 °F 97% 29.89 in 1.2 mi Calm Calm - N/A   Mostly Cloudy
5:59 AM 69.8 °F - 69.8 °F 100% 29.90 in 1.2 mi Calm Calm - N/A   Mostly Cloudy
6:32 AM 71.6 °F - 69.8 °F 94% 29.92 in 1.8 mi Calm Calm - N/A   Overcast
6:40 AM 71.6 °F - 69.8 °F 94% 29.92 in 2.0 mi Calm Calm - N/A   Overcast
6:53 AM 71.6 °F - 69.8 °F 94% 29.93 in 2.0 mi Calm Calm - N/A   Overcast
7:53 AM 73.9 °F - 71.1 °F 91% 29.92 in 3.0 mi South 4.6 mph - 0.00 in   Partly Cloudy
8:53 AM 78.1 °F - 72.0 °F 81% 29.93 in 6.0 mi SW 9.2 mph - N/A   Haze
9:53 AM 81.0 °F 85.8 °F 73.0 °F 77% 29.92 in 7.0 mi SW 9.2 mph - N/A   Clear
10:53 AM 84.0 °F 89.6 °F 72.0 °F 67% 29.92 in 8.0 mi SSW 9.2 mph - N/A   Clear
11:53 AM 86.0 °F 92.2 °F 72.0 °F 63% 29.91 in 8.0 mi SW 9.2 mph - N/A   Scattered Clouds
12:53 PM 86.0 °F 92.2 °F 72.0 °F 63% 29.88 in 9.0 mi SSW 10.4 mph 17.3 mph N/A   Partly Cloudy
1:53 PM 87.8 °F 91.4 °F 68.0 °F 52% 29.88 in 10.0 mi SSW 10.4 mph 18.4 mph N/A   Clear
2:53 PM 87.8 °F 92.6 °F 69.8 °F 55% 29.88 in 10.0 mi SSW 9.2 mph 19.6 mph N/A   Clear
3:53 PM 84.9 °F 89.4 °F 70.0 °F 61% 29.86 in 10.0 mi SW 4.6 mph - N/A   Clear
4:53 PM 84.9 °F 88.2 °F 68.0 °F 57% 29.85 in 10.0 mi South 9.2 mph - N/A   Clear
5:53 PM 84.0 °F 87.8 °F 69.1 °F 61% 29.83 in 10.0 mi South 10.4 mph - N/A   Clear
6:53 PM 82.0 °F 84.5 °F 66.9 °F 60% 29.83 in 10.0 mi South 9.2 mph - N/A   Clear
7:53 PM 80.1 °F 82.3 °F 66.9 °F 64% 29.82 in 10.0 mi South 9.2 mph - N/A   Clear
8:53 PM 79.0 °F - 66.9 °F 66% 29.84 in 10.0 mi South 9.2 mph - N/A   Clear
9:53 PM 78.1 °F - 68.0 °F 71% 29.86 in 10.0 mi South 10.4 mph 18.4 mph N/A   Clear
10:53 PM 78.1 °F - 69.1 °F 74% 29.87 in 10.0 mi South 9.2 mph - N/A   Clear
11:53 PM 77.0 °F - 69.1 °F 76% 29.88 in 10.0 mi South 8.1 mph 19.6 mph N/A   Clear